{"data":{"norad_id":63235,"intl_designator":"2025-052AB","name":"OTP-2","alt_names":[],"object_type":"PAYLOAD","status":"ACTIVE","operator":null,"country":"US","launch_date":"2025-03-15","launch_site_code":"AFWTR","launch_vehicle":null,"mission":null,"orbit_class":"UNKNOWN","rcs_meters":null,"size_class":null,"mass_kg":null,"dimensions":null,"purposes":["comms"],"wikipedia_slug":null,"has_3d_model":false,"image_url":null,"decayed_at":null,"tle_current":{"epoch":"2026-09-19T09:55:06.429504Z","epoch_age_seconds":112238,"freshness":"FRESH","line1":"1 63235U 25052AB  26262.41326886  .00005498  00000+0  22242-3 0  9999","line2":"2 63235  97.3717 153.4405 0005947 173.2242 186.9077 15.25100896 84224","mean_motion":15.25100896,"eccentricity":0.0005947,"inclination_deg":97.3717,"raan_deg":153.4405,"arg_perigee_deg":173.2242,"mean_anomaly_deg":186.9077,"bstar":0.00022242,"rev_number":8422,"period_min":94.419982558321,"perigee_km":486.39771118012,"apogee_km":494.56724718866,"semimajor_km":6868.6194791844,"source":"CELESTRAK","updated_at":"2026-09-20T09:00:45.264876Z"}}}